Time,TemperatureF,DewpointF,PressureIn,WindDirection,WindDirectionDegrees,WindSpeedMPH,WindSpeedGustMPH,Humidity,HourlyPrecipIn,Conditions,Clouds,dailyrainin,SoftwareType,DateUTC
2013-01-21 00:04:00,30.9,32.0,29.53,NNW,342,3.1,10.1,30,0.00,,,-99.99,wx200d/1.3,2013-01-21 05:04:00,
2013-01-21 00:09:00,30.7,32.0,29.53,NNW,333,7.4,12.5,30,0.00,,,-99.99,wx200d/1.3,2013-01-21 05:09:00,
2013-01-21 00:14:00,30.6,32.0,29.53,NNW,337,7.4,10.5,30,0.00,,,-99.99,wx200d/1.3,2013-01-21 05:14:00,
2013-01-21 00:19:00,30.4,32.0,29.53,North,351,5.8,9.6,30,0.00,,,-99.99,wx200d/1.3,2013-01-21 05:19:00,
2013-01-21 00:24:00,30.4,32.0,29.53,NNW,337,6.3,9.6,30,0.00,,,-99.99,wx200d/1.3,2013-01-21 05:24:00,
2013-01-21 00:29:00,30.0,32.0,29.53,NNW,333,6.7,12.1,31,0.00,,,-99.99,wx200d/1.3,2013-01-21 05:29:00,
2013-01-21 00:34:00,29.8,32.0,29.53,NNW,332,7.4,9.6,31,0.00,,,-99.99,wx200d/1.3,2013-01-21 05:34:00,
2013-01-21 00:39:00,29.7,32.0,29.53,NW,311,6.9,11.0,31,0.00,,,-99.99,wx200d/1.3,2013-01-21 05:39:00,
2013-01-21 00:44:00,29.5,32.0,29.53,NNW,334,6.9,11.0,31,0.00,,,-99.99,wx200d/1.3,2013-01-21 05:44:00,
2013-01-21 00:49:00,29.3,32.0,29.53,NNW,343,6.3,8.3,32,0.00,,,-99.99,wx200d/1.3,2013-01-21 05:49:00,
2013-01-21 00:54:00,28.9,32.0,29.53,NNW,328,6.3,9.6,32,0.00,,,-99.99,wx200d/1.3,2013-01-21 05:54:00,
2013-01-21 00:59:00,28.8,32.0,29.53,NNW,346,4.9,8.3,32,0.00,,,-99.99,wx200d/1.3,2013-01-21 05:59:00,
2013-01-21 01:04:00,28.8,32.0,29.53,NNW,337,4.5,6.9,32,0.00,,,-99.99,wx200d/1.3,2013-01-21 06:04:00,
2013-01-21 01:09:00,28.6,32.0,29.53,NNW,340,4.9,7.8,33,0.00,,,-99.99,wx200d/1.3,2013-01-21 06:09:00,
2013-01-21 01:14:00,28.6,32.0,29.53,NW,319,5.4,8.3,32,0.00,,,-99.99,wx200d/1.3,2013-01-21 06:14:00,
2013-01-21 01:19:00,28.8,32.0,29.53,NNW,343,6.9,11.0,32,0.00,,,-99.99,wx200d/1.3,2013-01-21 06:19:00,
2013-01-21 01:24:00,28.8,32.0,29.53,NW,319,6.3,11.0,31,0.00,,,-99.99,wx200d/1.3,2013-01-21 06:24:00,
2013-01-21 01:29:00,28.8,32.0,29.53,NNW,330,7.4,9.6,31,0.00,,,-99.99,wx200d/1.3,2013-01-21 06:29:00,
2013-01-21 01:34:00,28.8,32.0,29.53,NW,318,6.3,10.1,31,0.00,,,-99.99,wx200d/1.3,2013-01-21 06:34:00,
2013-01-21 01:39:00,28.8,32.0,29.53,NNW,327,6.3,11.6,31,0.00,,,-99.99,wx200d/1.3,2013-01-21 06:39:00,
2013-01-21 01:44:00,28.8,32.0,29.53,NW,323,7.4,11.2,31,0.00,,,-99.99,wx200d/1.3,2013-01-21 06:44:00,
2013-01-21 01:49:00,28.8,32.0,29.53,NW,320,6.7,10.5,31,0.00,,,-99.99,wx200d/1.3,2013-01-21 06:49:00,
2013-01-21 01:54:00,28.6,32.0,29.53,NNW,331,5.8,9.6,31,0.00,,,-99.99,wx200d/1.3,2013-01-21 06:54:00,
2013-01-21 01:59:00,28.4,32.0,29.56,NNW,330,3.1,8.3,31,0.00,,,-99.99,wx200d/1.3,2013-01-21 06:59:00,
2013-01-21 02:04:00,28.4,32.0,29.56,NW,316,5.8,8.3,31,0.00,,,-99.99,wx200d/1.3,2013-01-21 07:04:00,
2013-01-21 02:09:00,28.2,32.0,29.56,NW,326,5.8,8.3,31,0.00,,,-99.99,wx200d/1.3,2013-01-21 07:09:00,
2013-01-21 02:14:00,28.2,32.0,29.56,NNW,329,4.5,10.1,31,0.00,,,-99.99,wx200d/1.3,2013-01-21 07:14:00,
2013-01-21 02:19:00,28.0,32.0,29.56,NW,318,5.8,8.3,31,0.00,,,-99.99,wx200d/1.3,2013-01-21 07:19:00,
2013-01-21 02:24:00,28.0,32.0,29.56,NNW,334,4.9,9.2,31,0.00,,,-99.99,wx200d/1.3,2013-01-21 07:24:00,
2013-01-21 02:29:00,28.0,32.0,29.56,WNW,301,6.9,11.6,31,0.00,,,-99.99,wx200d/1.3,2013-01-21 07:29:00,
2013-01-21 02:35:00,28.0,32.0,29.56,North,356,7.4,12.1,31,0.00,,,-99.99,wx200d/1.3,2013-01-21 07:35:00,
2013-01-21 02:40:00,28.0,32.0,29.56,NW,307,6.9,11.2,31,0.00,,,-99.99,wx200d/1.3,2013-01-21 07:40:00,
2013-01-21 02:45:00,28.0,32.0,29.56,NW,305,6.3,11.0,31,0.00,,,-99.99,wx200d/1.3,2013-01-21 07:45:00,
2013-01-21 02:50:00,27.9,32.0,29.56,NW,324,5.8,9.6,31,0.00,,,-99.99,wx200d/1.3,2013-01-21 07:50:00,
2013-01-21 02:55:00,27.7,32.0,29.56,WNW,300,5.8,9.2,31,0.00,,,-99.99,wx200d/1.3,2013-01-21 07:55:00,
2013-01-21 03:00:00,27.7,32.0,29.56,NW,322,6.7,9.6,31,0.00,,,-99.99,wx200d/1.3,2013-01-21 08:00:00,
2013-01-21 03:05:00,27.7,32.0,29.56,NNW,336,4.9,9.2,31,0.00,,,-99.99,wx200d/1.3,2013-01-21 08:05:00,
2013-01-21 03:10:00,27.5,32.0,29.56,NW,316,5.4,7.4,31,0.00,,,-99.99,wx200d/1.3,2013-01-21 08:10:00,
2013-01-21 03:15:00,27.5,32.0,29.53,NW,326,6.3,8.3,31,0.00,,,-99.99,wx200d/1.3,2013-01-21 08:15:00,
2013-01-21 03:20:00,27.3,32.0,29.53,NNW,331,0.0,7.8,31,0.00,,,-99.99,wx200d/1.3,2013-01-21 08:20:00,
2013-01-21 03:25:00,27.1,32.0,29.53,NW,319,0.0,5.4,31,0.00,,,-99.99,wx200d/1.3,2013-01-21 08:25:00,
2013-01-21 03:30:00,27.0,32.0,29.53,NW,325,0.0,7.8,31,0.00,,,-99.99,wx200d/1.3,2013-01-21 08:30:00,
2013-01-21 03:35:00,27.0,32.0,29.53,NNW,334,4.9,7.4,32,0.00,,,-99.99,wx200d/1.3,2013-01-21 08:35:00,
2013-01-21 03:40:00,26.6,32.0,29.53,NNW,347,5.4,7.4,32,0.00,,,-99.99,wx200d/1.3,2013-01-21 08:40:00,
2013-01-21 03:45:00,26.6,32.0,29.53,North,351,5.4,8.3,32,0.00,,,-99.99,wx200d/1.3,2013-01-21 08:45:00,
2013-01-21 03:50:00,26.8,32.0,29.53,North,351,4.9,10.5,32,0.00,,,-99.99,wx200d/1.3,2013-01-21 08:50:00,
2013-01-21 03:55:00,27.0,32.0,29.53,NNW,333,5.8,8.7,32,0.00,,,-99.99,wx200d/1.3,2013-01-21 08:55:00,
2013-01-21 04:00:00,27.0,32.0,29.53,North,7,4.9,11.0,32,0.00,,,-99.99,wx200d/1.3,2013-01-21 09:00:00,
2013-01-21 04:05:00,27.0,32.0,29.53,NNW,330,4.0,8.7,32,0.00,,,-99.99,wx200d/1.3,2013-01-21 09:05:00,
2013-01-21 04:10:00,27.0,32.0,29.53,North,356,4.0,8.7,32,0.00,,,-99.99,wx200d/1.3,2013-01-21 09:10:00,
2013-01-21 04:15:00,26.8,32.0,29.53,North,0,4.0,6.9,32,0.00,,,-99.99,wx200d/1.3,2013-01-21 09:15:00,
2013-01-21 04:20:00,26.6,32.0,29.53,NNW,340,4.0,7.4,32,0.00,,,-99.99,wx200d/1.3,2013-01-21 09:20:00,
2013-01-21 04:25:00,26.6,32.0,29.53,NNW,332,2.7,7.8,32,0.00,,,-99.99,wx200d/1.3,2013-01-21 09:25:00,
2013-01-21 04:30:00,26.4,32.0,29.53,NNW,339,3.1,7.8,32,0.00,,,-99.99,wx200d/1.3,2013-01-21 09:30:00,
2013-01-21 04:35:00,26.4,32.0,29.53,NNW,339,4.0,7.8,32,0.00,,,-99.99,wx200d/1.3,2013-01-21 09:35:00,
2013-01-21 04:40:00,26.2,32.0,29.53,NNW,347,3.6,6.9,32,0.00,,,-99.99,wx200d/1.3,2013-01-21 09:40:00,
2013-01-21 04:45:00,26.2,32.0,29.53,NNE,18,4.9,6.9,32,0.00,,,-99.99,wx200d/1.3,2013-01-21 09:45:00,
2013-01-21 04:50:00,26.2,32.0,29.53,NNW,339,0.0,6.3,32,0.00,,,-99.99,wx200d/1.3,2013-01-21 09:50:00,
2013-01-21 04:55:00,26.2,32.0,29.53,NNE,20,3.1,8.3,32,0.00,,,-99.99,wx200d/1.3,2013-01-21 09:55:00,
2013-01-21 05:00:00,26.1,32.0,29.50,North,356,2.7,6.7,32,0.00,,,-99.99,wx200d/1.3,2013-01-21 10:00:00,
2013-01-21 05:05:00,26.1,32.0,29.50,North,351,0.0,8.3,32,0.00,,,-99.99,wx200d/1.3,2013-01-21 10:05:00,
2013-01-21 05:11:00,26.1,32.0,29.50,NNE,15,2.7,5.4,32,0.00,,,-99.99,wx200d/1.3,2013-01-21 10:11:00,
2013-01-21 05:16:00,26.1,32.0,29.50,North,356,3.1,4.5,32,0.00,,,-99.99,wx200d/1.3,2013-01-21 10:16:00,
2013-01-21 05:21:00,26.1,32.0,29.50,North,351,3.6,5.8,32,0.00,,,-99.99,wx200d/1.3,2013-01-21 10:21:00,
2013-01-21 05:26:00,25.9,32.0,29.50,North,10,2.7,4.0,32,0.00,,,-99.99,wx200d/1.3,2013-01-21 10:26:00,
2013-01-21 05:31:00,25.9,32.0,29.50,North,351,3.1,4.9,32,0.00,,,-99.99,wx200d/1.3,2013-01-21 10:31:00,
2013-01-21 05:36:00,25.9,32.0,29.50,North,11,2.7,4.0,32,0.00,,,-99.99,wx200d/1.3,2013-01-21 10:36:00,
2013-01-21 05:41:00,25.9,32.0,29.50,North,351,0.0,4.0,32,0.00,,,-99.99,wx200d/1.3,2013-01-21 10:41:00,
2013-01-21 05:47:00,25.9,32.0,29.50,NNW,347,0.0,4.9,32,0.00,,,-99.99,wx200d/1.3,2013-01-21 10:47:00,
2013-01-21 05:52:00,25.7,32.0,29.50,NNW,344,0.0,4.9,33,0.00,,,-99.99,wx200d/1.3,2013-01-21 10:52:00,
2013-01-21 05:57:00,25.5,32.0,29.50,NNW,343,0.0,0.0,33,0.00,,,-99.99,wx200d/1.3,2013-01-21 10:57:00,
2013-01-21 06:02:00,25.5,32.0,29.50,NNW,343,0.0,0.0,33,0.00,,,-99.99,wx200d/1.3,2013-01-21 11:02:00,
2013-01-21 06:07:00,25.5,32.0,29.50,NNW,344,0.0,3.1,33,0.00,,,-99.99,wx200d/1.3,2013-01-21 11:07:00,
2013-01-21 06:12:00,25.5,32.0,29.50,North,351,0.0,0.0,33,0.00,,,-99.99,wx200d/1.3,2013-01-21 11:12:00,
2013-01-21 06:18:00,25.5,32.0,29.50,North,2,0.0,3.1,33,0.00,,,-99.99,wx200d/1.3,2013-01-21 11:18:00,
2013-01-21 06:23:00,25.7,32.0,29.50,North,2,0.0,0.0,33,0.00,,,-99.99,wx200d/1.3,2013-01-21 11:23:00,
2013-01-21 06:28:00,25.5,32.0,29.50,North,2,0.0,0.0,33,0.00,,,-99.99,wx200d/1.3,2013-01-21 11:28:00,
2013-01-21 06:33:00,25.5,32.0,29.50,North,2,0.0,0.0,33,0.00,,,-99.99,wx200d/1.3,2013-01-21 11:33:00,
2013-01-21 06:38:00,25.3,32.0,29.50,North,2,0.0,0.0,33,0.00,,,-99.99,wx200d/1.3,2013-01-21 11:38:00,
2013-01-21 06:43:00,25.3,32.0,29.50,North,2,0.0,0.0,33,0.00,,,-99.99,wx200d/1.3,2013-01-21 11:43:00,
2013-01-21 06:48:00,25.0,32.0,29.50,North,2,0.0,0.0,33,0.00,,,-99.99,wx200d/1.3,2013-01-21 11:48:00,
2013-01-21 06:53:00,24.8,32.0,29.50,North,2,0.0,0.0,33,0.00,,,-99.99,wx200d/1.3,2013-01-21 11:53:00,
2013-01-21 06:58:00,24.8,32.0,29.50,North,2,0.0,0.0,33,0.00,,,-99.99,wx200d/1.3,2013-01-21 11:58:00,
2013-01-21 07:03:00,25.0,32.0,29.50,North,2,0.0,0.0,33,0.00,,,-99.99,wx200d/1.3,2013-01-21 12:03:00,
2013-01-21 07:08:00,25.2,32.0,29.50,North,2,0.0,0.0,34,0.00,,,-99.99,wx200d/1.3,2013-01-21 12:08:00,
2013-01-21 07:13:00,25.3,32.0,29.50,North,2,0.0,0.0,34,0.00,,,-99.99,wx200d/1.3,2013-01-21 12:13:00,
2013-01-21 07:18:00,25.5,32.0,29.50,North,2,0.0,0.0,34,0.00,,,-99.99,wx200d/1.3,2013-01-21 12:18:00,
2013-01-21 07:23:00,25.7,32.0,29.50,North,2,0.0,0.0,35,0.00,,,-99.99,wx200d/1.3,2013-01-21 12:23:00,
2013-01-21 07:28:00,25.9,32.0,29.50,NE,41,0.0,0.0,35,0.00,,,-99.99,wx200d/1.3,2013-01-21 12:28:00,
2013-01-21 07:33:00,25.9,32.0,29.50,NE,43,0.0,0.0,35,0.00,,,-99.99,wx200d/1.3,2013-01-21 12:33:00,
2013-01-21 07:38:00,26.1,32.0,29.50,NE,43,0.0,0.0,35,0.00,,,-99.99,wx200d/1.3,2013-01-21 12:38:00,
2013-01-21 07:43:00,26.1,32.0,29.50,NE,43,0.0,0.0,35,0.00,,,-99.99,wx200d/1.3,2013-01-21 12:43:00,
2013-01-21 07:48:00,26.2,32.0,29.50,NE,51,0.0,0.0,35,0.00,,,-99.99,wx200d/1.3,2013-01-21 12:48:00,
2013-01-21 07:53:00,26.2,32.0,29.50,ENE,71,0.0,0.0,35,0.00,,,-99.99,wx200d/1.3,2013-01-21 12:53:00,
2013-01-21 07:58:00,26.2,32.0,29.50,East,95,0.0,0.0,35,0.00,,,-99.99,wx200d/1.3,2013-01-21 12:58:00,
2013-01-21 08:03:00,26.6,32.0,29.50,SE,136,0.0,2.7,34,0.00,,,-99.99,wx200d/1.3,2013-01-21 13:03:00,
2013-01-21 08:08:00,26.8,32.0,29.50,SSE,164,0.0,4.0,34,0.00,,,-99.99,wx200d/1.3,2013-01-21 13:08:00,
2013-01-21 08:13:00,26.8,32.0,29.53,South,180,0.0,0.0,34,0.00,,,-99.99,wx200d/1.3,2013-01-21 13:13:00,
2013-01-21 08:18:00,26.8,32.0,29.53,SSE,154,4.9,6.3,34,0.00,,,-99.99,wx200d/1.3,2013-01-21 13:18:00,
2013-01-21 08:23:00,26.8,32.0,29.53,SSE,159,0.0,6.3,34,0.00,,,-99.99,wx200d/1.3,2013-01-21 13:23:00,
2013-01-21 08:28:00,27.0,32.0,29.53,South,182,2.7,5.4,34,0.00,,,-99.99,wx200d/1.3,2013-01-21 13:28:00,
2013-01-21 08:33:00,27.0,32.0,29.53,South,170,6.7,7.8,34,0.00,,,-99.99,wx200d/1.3,2013-01-21 13:33:00,
2013-01-21 08:38:00,27.0,32.0,29.53,SE,143,6.3,8.3,34,0.00,,,-99.99,wx200d/1.3,2013-01-21 13:38:00,
2013-01-21 08:43:00,27.1,32.0,29.53,South,191,6.3,7.4,34,0.00,,,-99.99,wx200d/1.3,2013-01-21 13:43:00,
2013-01-21 08:48:00,27.1,32.0,29.53,SSE,166,4.5,6.9,34,0.00,,,-99.99,wx200d/1.3,2013-01-21 13:48:00,
2013-01-21 08:53:00,27.1,32.0,29.53,SSE,154,0.0,6.9,33,0.00,,,-99.99,wx200d/1.3,2013-01-21 13:53:00,
2013-01-21 08:58:00,27.5,32.0,29.53,South,186,3.6,5.8,33,0.00,,,-99.99,wx200d/1.3,2013-01-21 13:58:00,
2013-01-21 09:03:00,27.7,32.0,29.53,South,175,5.4,7.4,33,0.00,,,-99.99,wx200d/1.3,2013-01-21 14:03:00,
2013-01-21 09:08:00,27.9,32.0,29.53,South,189,0.0,8.3,32,0.00,,,-99.99,wx200d/1.3,2013-01-21 14:08:00,
2013-01-21 09:13:00,27.9,32.0,29.53,SSE,156,0.0,7.4,32,0.00,,,-99.99,wx200d/1.3,2013-01-21 14:13:00,
2013-01-21 09:18:00,28.0,32.0,29.53,SSE,165,2.7,4.5,32,0.00,,,-99.99,wx200d/1.3,2013-01-21 14:18:00,
2013-01-21 09:24:00,28.0,32.0,29.53,ESE,118,0.0,6.3,32,0.00,,,-99.99,wx200d/1.3,2013-01-21 14:24:00,
2013-01-21 09:29:00,28.4,32.0,29.50,South,185,3.1,4.5,32,0.00,,,-99.99,wx200d/1.3,2013-01-21 14:29:00,
2013-01-21 09:34:00,28.4,32.0,29.50,South,182,0.0,0.0,32,0.00,,,-99.99,wx200d/1.3,2013-01-21 14:34:00,
2013-01-21 09:39:00,28.6,32.0,29.50,South,175,0.0,4.9,31,0.00,,,-99.99,wx200d/1.3,2013-01-21 14:39:00,
2013-01-21 09:44:00,28.8,32.0,29.50,South,175,0.0,0.0,31,0.00,,,-99.99,wx200d/1.3,2013-01-21 14:44:00,
2013-01-21 09:49:00,28.8,32.0,29.50,SSE,168,3.1,4.9,31,0.00,,,-99.99,wx200d/1.3,2013-01-21 14:49:00,
2013-01-21 09:54:00,28.8,32.0,29.50,SW,233,0.0,5.4,31,0.00,,,-99.99,wx200d/1.3,2013-01-21 14:54:00,
2013-01-21 09:59:00,29.1,32.0,29.50,SSW,196,3.6,6.7,31,0.00,,,-99.99,wx200d/1.3,2013-01-21 14:59:00,
2013-01-21 10:04:00,28.9,32.0,29.50,South,175,0.0,6.3,31,0.00,,,-99.99,wx200d/1.3,2013-01-21 15:04:00,
2013-01-21 10:09:00,28.9,32.0,29.50,SE,126,3.1,4.9,31,0.00,,,-99.99,wx200d/1.3,2013-01-21 15:09:00,
2013-01-21 10:14:00,28.9,32.0,29.50,South,178,6.7,8.7,31,0.00,,,-99.99,wx200d/1.3,2013-01-21 15:14:00,
2013-01-21 10:19:00,29.3,32.0,29.50,SSE,161,4.0,6.9,31,0.00,,,-99.99,wx200d/1.3,2013-01-21 15:19:00,
2013-01-21 10:24:00,29.3,32.0,29.50,South,178,6.3,8.7,30,0.00,,,-99.99,wx200d/1.3,2013-01-21 15:24:00,
2013-01-21 10:29:00,29.3,32.0,29.50,South,175,6.3,8.7,31,0.00,,,-99.99,wx200d/1.3,2013-01-21 15:29:00,
2013-01-21 10:34:00,29.3,32.0,29.50,SSE,151,4.5,6.7,31,0.00,,,-99.99,wx200d/1.3,2013-01-21 15:34:00,
2013-01-21 10:39:00,29.3,32.0,29.50,South,173,7.4,11.0,31,0.00,,,-99.99,wx200d/1.3,2013-01-21 15:39:00,
2013-01-21 10:44:00,29.1,32.0,29.50,South,178,7.8,11.2,31,0.00,,,-99.99,wx200d/1.3,2013-01-21 15:44:00,
2013-01-21 10:49:00,29.3,32.0,29.50,South,177,4.9,9.6,31,0.00,,,-99.99,wx200d/1.3,2013-01-21 15:49:00,
2013-01-21 10:54:00,29.3,32.0,29.50,South,188,8.7,10.1,31,0.00,,,-99.99,wx200d/1.3,2013-01-21 15:54:00,
2013-01-21 10:59:00,29.5,32.0,29.50,South,180,6.3,9.2,30,0.00,,,-99.99,wx200d/1.3,2013-01-21 15:59:00,
2013-01-21 11:04:00,29.8,32.0,29.50,South,189,7.8,9.6,30,0.00,,,-99.99,wx200d/1.3,2013-01-21 16:04:00,
2013-01-21 11:10:00,29.7,32.0,29.50,South,176,8.3,10.5,30,0.00,,,-99.99,wx200d/1.3,2013-01-21 16:10:00,
2013-01-21 11:15:00,29.7,32.0,29.47,South,177,7.4,10.5,30,0.00,,,-99.99,wx200d/1.3,2013-01-21 16:15:00,
2013-01-21 11:20:00,29.7,32.0,29.47,SSE,157,8.3,11.0,30,0.00,,,-99.99,wx200d/1.3,2013-01-21 16:20:00,
2013-01-21 11:25:00,29.8,32.0,29.47,SSW,210,8.3,13.4,30,0.00,,,-99.99,wx200d/1.3,2013-01-21 16:25:00,
2013-01-21 11:30:00,29.8,32.0,29.47,South,191,7.8,13.0,30,0.00,,,-99.99,wx200d/1.3,2013-01-21 16:30:00,
2013-01-21 11:35:00,30.4,32.0,29.47,South,179,8.3,10.1,30,0.00,,,-99.99,wx200d/1.3,2013-01-21 16:35:00,
2013-01-21 11:40:00,30.6,32.0,29.47,South,183,6.7,11.0,30,0.00,,,-99.99,wx200d/1.3,2013-01-21 16:40:00,
2013-01-21 11:45:00,30.4,32.0,29.47,South,180,7.8,11.6,28,0.00,,,-99.99,wx200d/1.3,2013-01-21 16:45:00,
2013-01-21 11:50:00,30.4,32.0,29.47,South,182,7.4,9.6,30,0.00,,,-99.99,wx200d/1.3,2013-01-21 16:50:00,
2013-01-21 11:55:00,30.6,32.0,29.47,South,191,6.7,11.0,30,0.00,,,-99.99,wx200d/1.3,2013-01-21 16:55:00,
2013-01-21 12:00:00,30.6,32.0,29.44,SE,126,4.9,11.6,30,0.00,,,-99.99,wx200d/1.3,2013-01-21 17:00:00,
2013-01-21 12:05:00,30.7,32.0,29.44,South,187,7.8,11.6,30,0.00,,,-99.99,wx200d/1.3,2013-01-21 17:05:00,
2013-01-21 12:10:00,30.6,32.0,29.44,South,170,9.2,13.4,30,0.00,,,-99.99,wx200d/1.3,2013-01-21 17:10:00,
2013-01-21 12:15:00,30.7,32.0,29.44,ESE,121,5.8,9.2,30,0.00,,,-99.99,wx200d/1.3,2013-01-21 17:15:00,
2013-01-21 12:20:00,31.3,32.0,29.44,South,190,6.7,8.3,30,0.00,,,-99.99,wx200d/1.3,2013-01-21 17:20:00,
2013-01-21 12:25:00,31.5,32.0,29.44,SSW,193,5.8,9.6,30,0.00,,,-99.99,wx200d/1.3,2013-01-21 17:25:00,
2013-01-21 12:30:00,31.5,32.0,29.41,SSW,192,7.8,11.2,30,0.00,,,-99.99,wx200d/1.3,2013-01-21 17:30:00,
2013-01-21 12:35:00,31.5,32.0,29.41,South,172,10.1,12.5,30,0.00,,,-99.99,wx200d/1.3,2013-01-21 17:35:00,
2013-01-21 12:40:00,31.5,32.0,29.41,SW,224,9.2,11.0,30,0.00,,,-99.99,wx200d/1.3,2013-01-21 17:40:00,
2013-01-21 12:45:00,31.5,32.0,29.41,SE,143,6.7,12.5,28,0.00,,,-99.99,wx200d/1.3,2013-01-21 17:45:00,
2013-01-21 12:50:00,31.3,32.0,29.41,ESE,121,5.8,11.2,28,0.00,,,-99.99,wx200d/1.3,2013-01-21 17:50:00,
2013-01-21 12:55:00,31.5,32.0,29.41,South,177,7.8,11.6,28,0.00,,,-99.99,wx200d/1.3,2013-01-21 17:55:00,
2013-01-21 13:00:00,31.3,32.0,29.41,South,172,6.9,9.2,28,0.00,,,-99.99,wx200d/1.3,2013-01-21 18:00:00,
2013-01-21 13:05:00,31.3,32.0,29.41,SSE,147,8.3,10.5,28,0.00,,,-99.99,wx200d/1.3,2013-01-21 18:05:00,
2013-01-21 13:10:00,31.1,32.0,29.41,SSW,194,8.7,11.0,30,0.00,,,-99.99,wx200d/1.3,2013-01-21 18:10:00,
2013-01-21 13:15:00,31.1,32.0,29.38,SSW,192,6.7,9.6,30,0.00,,,-99.99,wx200d/1.3,2013-01-21 18:15:00,
2013-01-21 13:20:00,31.3,32.0,29.38,South,181,9.6,12.5,30,0.00,,,-99.99,wx200d/1.3,2013-01-21 18:20:00,
2013-01-21 13:25:00,31.3,32.0,29.38,South,180,6.3,9.2,30,0.00,,,-99.99,wx200d/1.3,2013-01-21 18:25:00,
2013-01-21 13:30:00,31.5,32.0,29.38,SSW,192,7.4,12.5,30,0.00,,,-99.99,wx200d/1.3,2013-01-21 18:30:00,
2013-01-21 13:35:00,31.5,32.0,29.38,SSW,204,6.3,8.7,30,0.00,,,-99.99,wx200d/1.3,2013-01-21 18:35:00,
2013-01-21 13:40:00,31.6,32.0,29.38,SSE,149,4.9,6.9,30,0.00,,,-99.99,wx200d/1.3,2013-01-21 18:40:00,
2013-01-21 13:45:00,31.8,32.0,29.38,South,183,4.0,7.8,30,0.00,,,-99.99,wx200d/1.3,2013-01-21 18:45:00,
2013-01-21 13:50:00,31.6,32.0,29.38,SSE,164,4.9,9.2,30,0.00,,,-99.99,wx200d/1.3,2013-01-21 18:50:00,
2013-01-21 13:55:00,31.8,32.0,29.38,SE,141,3.1,9.2,30,0.00,,,-99.99,wx200d/1.3,2013-01-21 18:55:00,
2013-01-21 14:00:00,32.2,32.0,29.35,South,170,5.8,7.8,30,0.00,,,-99.99,wx200d/1.3,2013-01-21 19:00:00,
2013-01-21 14:05:00,32.2,32.0,29.35,South,179,7.8,10.5,30,0.00,,,-99.99,wx200d/1.3,2013-01-21 19:05:00,
2013-01-21 14:10:00,32.0,32.0,29.35,SE,137,6.3,11.0,30,0.00,,,-99.99,wx200d/1.3,2013-01-21 19:10:00,
2013-01-21 14:15:00,32.0,32.0,29.35,SSE,166,5.4,10.1,30,0.00,,,-99.99,wx200d/1.3,2013-01-21 19:15:00,
2013-01-21 14:20:00,32.0,32.0,29.35,ESE,123,2.7,6.9,30,0.00,,,-99.99,wx200d/1.3,2013-01-21 19:20:00,
2013-01-21 14:25:00,32.2,32.0,29.35,South,180,4.5,8.3,30,0.00,,,-99.99,wx200d/1.3,2013-01-21 19:25:00,
2013-01-21 14:30:00,32.4,32.0,29.32,SE,127,0.0,7.8,30,0.00,,,-99.99,wx200d/1.3,2013-01-21 19:30:00,
2013-01-21 14:35:00,32.4,32.0,29.32,SE,146,5.4,9.6,30,0.00,,,-99.99,wx200d/1.3,2013-01-21 19:35:00,
2013-01-21 14:40:00,32.5,32.0,29.32,SE,142,5.8,8.3,30,0.00,,,-99.99,wx200d/1.3,2013-01-21 19:40:00,
2013-01-21 14:45:00,32.7,32.0,29.32,ESE,123,5.8,8.3,30,0.00,,,-99.99,wx200d/1.3,2013-01-21 19:45:00,
2013-01-21 14:50:00,33.1,32.0,29.32,SE,136,6.3,10.1,30,0.00,,,-99.99,wx200d/1.3,2013-01-21 19:50:00,
2013-01-21 14:56:00,33.4,32.0,29.32,South,188,6.3,11.0,30,0.00,,,-99.99,wx200d/1.3,2013-01-21 19:56:00,
2013-01-21 15:01:00,34.0,32.0,29.32,SE,135,4.9,11.6,30,0.00,,,-99.99,wx200d/1.3,2013-01-21 20:01:00,
2013-01-21 15:06:00,34.5,32.0,29.32,ESE,119,6.3,11.6,30,0.00,,,-99.99,wx200d/1.3,2013-01-21 20:06:00,
2013-01-21 15:11:00,35.2,32.0,29.32,SE,131,7.4,10.1,29,0.00,,,-99.99,wx200d/1.3,2013-01-21 20:11:00,
2013-01-21 15:16:00,35.1,32.0,29.29,SSE,166,7.4,10.5,29,0.00,,,-99.99,wx200d/1.3,2013-01-21 20:16:00,
2013-01-21 15:21:00,35.2,32.0,29.29,South,184,7.4,10.5,29,0.00,,,-99.99,wx200d/1.3,2013-01-21 20:21:00,
2013-01-21 15:26:00,35.4,32.0,29.29,South,174,7.4,11.2,29,0.00,,,-99.99,wx200d/1.3,2013-01-21 20:26:00,
2013-01-21 15:31:00,35.4,32.0,29.29,South,176,7.4,11.0,29,0.00,,,-99.99,wx200d/1.3,2013-01-21 20:31:00,
2013-01-21 15:36:00,35.1,32.0,29.29,South,174,10.1,15.4,27,0.00,,,-99.99,wx200d/1.3,2013-01-21 20:36:00,
2013-01-21 15:41:00,35.1,32.0,29.29,South,174,4.9,11.2,29,0.00,,,-99.99,wx200d/1.3,2013-01-21 20:41:00,
2013-01-21 15:46:00,35.1,32.0,29.29,South,178,8.3,10.5,29,0.00,,,-99.99,wx200d/1.3,2013-01-21 20:46:00,
2013-01-21 15:51:00,35.4,32.0,29.29,SSW,205,6.7,9.6,29,0.00,,,-99.99,wx200d/1.3,2013-01-21 20:51:00,
2013-01-21 15:56:00,34.9,32.0,29.29,South,185,5.4,9.6,27,0.00,,,-99.99,wx200d/1.3,2013-01-21 20:56:00,
2013-01-21 16:01:00,34.5,32.0,29.29,SSE,151,0.0,7.8,30,0.00,,,-99.99,wx200d/1.3,2013-01-21 21:01:00,
2013-01-21 16:06:00,34.5,32.0,29.29,SSE,158,5.8,8.3,30,0.00,,,-99.99,wx200d/1.3,2013-01-21 21:06:00,
2013-01-21 16:11:00,34.5,32.0,29.29,SSE,147,6.9,10.1,30,0.00,,,-99.99,wx200d/1.3,2013-01-21 21:11:00,
2013-01-21 16:16:00,34.5,32.0,29.29,South,190,4.0,7.8,30,0.00,,,-99.99,wx200d/1.3,2013-01-21 21:16:00,
2013-01-21 16:21:00,34.5,32.0,29.29,SW,225,3.1,6.9,30,0.00,,,-99.99,wx200d/1.3,2013-01-21 21:21:00,
2013-01-21 16:26:00,34.5,32.0,29.29,SSW,211,4.9,5.8,30,0.00,,,-99.99,wx200d/1.3,2013-01-21 21:26:00,
2013-01-21 16:32:00,34.3,32.0,29.29,SSW,209,0.0,4.5,30,0.00,,,-99.99,wx200d/1.3,2013-01-21 21:32:00,
2013-01-21 16:37:00,34.3,32.0,29.29,SSW,209,0.0,0.0,30,0.00,,,-99.99,wx200d/1.3,2013-01-21 21:37:00,
2013-01-21 16:42:00,34.3,32.0,29.29,SSW,209,0.0,0.0,30,0.00,,,-99.99,wx200d/1.3,2013-01-21 21:42:00,
2013-01-21 16:47:00,34.2,32.0,29.29,SSW,209,0.0,0.0,30,0.00,,,-99.99,wx200d/1.3,2013-01-21 21:47:00,
2013-01-21 16:52:00,34.2,32.0,29.29,SSW,209,0.0,0.0,30,0.00,,,-99.99,wx200d/1.3,2013-01-21 21:52:00,
2013-01-21 16:57:00,34.0,32.0,29.29,SSW,209,0.0,0.0,30,0.00,,,-99.99,wx200d/1.3,2013-01-21 21:57:00,
2013-01-21 17:02:00,34.0,32.0,29.29,SSW,209,0.0,0.0,30,0.00,,,-99.99,wx200d/1.3,2013-01-21 22:02:00,
2013-01-21 17:07:00,34.0,32.0,29.29,SSW,209,0.0,0.0,30,0.00,,,-99.99,wx200d/1.3,2013-01-21 22:07:00,
2013-01-21 17:12:00,34.0,32.0,29.32,SSW,209,0.0,0.0,30,0.00,,,-99.99,wx200d/1.3,2013-01-21 22:12:00,
2013-01-21 17:17:00,34.0,32.0,29.32,SSW,209,0.0,0.0,30,0.00,,,-99.99,wx200d/1.3,2013-01-21 22:17:00,
2013-01-21 17:22:00,34.0,32.0,29.32,SSW,209,0.0,0.0,30,0.00,,,-99.99,wx200d/1.3,2013-01-21 22:22:00,
2013-01-21 17:27:00,34.0,32.0,29.29,SSW,209,0.0,0.0,30,0.00,,,-99.99,wx200d/1.3,2013-01-21 22:27:00,
2013-01-21 17:32:00,34.0,32.0,29.29,SSW,209,0.0,0.0,30,0.00,,,-99.99,wx200d/1.3,2013-01-21 22:32:00,
2013-01-21 17:37:00,34.0,32.0,29.29,SSW,209,0.0,0.0,30,0.00,,,-99.99,wx200d/1.3,2013-01-21 22:37:00,
2013-01-21 17:42:00,34.0,32.0,29.29,SSW,209,0.0,0.0,30,0.00,,,-99.99,wx200d/1.3,2013-01-21 22:42:00,
2013-01-21 17:47:00,33.8,32.0,29.29,SSW,209,0.0,0.0,30,0.00,,,-99.99,wx200d/1.3,2013-01-21 22:47:00,
2013-01-21 17:53:00,33.8,32.0,29.29,SSW,197,0.0,0.0,30,0.00,,,-99.99,wx200d/1.3,2013-01-21 22:53:00,
2013-01-21 17:58:00,33.8,32.0,29.29,SSW,197,0.0,0.0,30,0.00,,,-99.99,wx200d/1.3,2013-01-21 22:58:00,
2013-01-21 18:03:00,33.8,32.0,29.29,SSW,197,0.0,0.0,30,0.00,,,-99.99,wx200d/1.3,2013-01-21 23:03:00,
2013-01-21 18:08:00,33.6,32.0,29.29,SSW,197,0.0,0.0,30,0.00,,,-99.99,wx200d/1.3,2013-01-21 23:08:00,
2013-01-21 18:13:00,33.4,32.0,29.32,NW,309,0.0,0.0,31,0.00,,,-99.99,wx200d/1.3,2013-01-21 23:13:00,
2013-01-21 18:18:00,33.3,32.0,29.32,NNW,334,0.0,0.0,32,0.00,,,-99.99,wx200d/1.3,2013-01-21 23:18:00,
2013-01-21 18:23:00,33.3,32.0,29.32,NNW,334,0.0,0.0,32,0.00,,,-99.99,wx200d/1.3,2013-01-21 23:23:00,
2013-01-21 18:28:00,33.1,32.0,29.32,NNW,334,0.0,0.0,32,0.00,,,-99.99,wx200d/1.3,2013-01-21 23:28:00,
2013-01-21 18:33:00,33.1,32.0,29.32,NNW,334,0.0,0.0,33,0.00,,,-99.99,wx200d/1.3,2013-01-21 23:33:00,
2013-01-21 18:38:00,33.1,32.0,29.32,NNW,336,0.0,4.5,34,0.00,,,-99.99,wx200d/1.3,2013-01-21 23:38:00,
2013-01-21 18:43:00,33.1,32.0,29.32,North,351,2.7,4.9,34,0.00,,,-99.99,wx200d/1.3,2013-01-21 23:43:00,
2013-01-21 18:48:00,33.3,32.0,29.32,NNW,334,0.0,4.9,34,0.00,,,-99.99,wx200d/1.3,2013-01-21 23:48:00,
2013-01-21 18:53:00,33.3,32.0,29.32,WNW,299,5.8,7.4,33,0.00,,,-99.99,wx200d/1.3,2013-01-21 23:53:00,
2013-01-21 18:58:00,33.3,32.0,29.35,NW,319,7.4,12.1,33,0.00,,,-99.99,wx200d/1.3,2013-01-21 23:58:00,
2013-01-21 19:03:00,33.3,32.0,29.35,NNW,327,6.9,15.4,33,0.00,,,-99.99,wx200d/1.3,2013-01-22 00:03:00,
2013-01-21 19:08:00,33.1,32.0,29.35,NNW,346,8.7,14.3,33,0.00,,,-99.99,wx200d/1.3,2013-01-22 00:08:00,
2013-01-21 19:13:00,32.7,32.0,29.35,NNW,330,8.3,16.8,39,0.00,,,-99.99,wx200d/1.3,2013-01-22 00:13:00,
2013-01-21 19:18:00,31.8,32.0,29.35,NNW,330,9.2,15.4,44,0.00,,,-99.99,wx200d/1.3,2013-01-22 00:18:00,
2013-01-21 19:23:00,31.3,32.0,29.35,WNW,283,8.3,14.8,49,0.00,,,-99.99,wx200d/1.3,2013-01-22 00:23:00,
2013-01-21 19:28:00,30.9,32.0,29.35,NNW,341,6.3,12.1,51,0.00,,,-99.99,wx200d/1.3,2013-01-22 00:28:00,
2013-01-21 19:33:00,30.7,32.0,29.35,NNW,344,6.3,11.0,52,0.00,,,-99.99,wx200d/1.3,2013-01-22 00:33:00,
2013-01-21 19:38:00,30.7,32.0,29.35,North,11,6.3,11.0,52,0.00,,,-99.99,wx200d/1.3,2013-01-22 00:38:00,
2013-01-21 19:43:00,30.6,32.0,29.35,NW,321,5.4,11.0,53,0.00,,,-99.99,wx200d/1.3,2013-01-22 00:43:00,
2013-01-21 19:48:00,30.4,32.0,29.35,NW,320,0.0,5.4,52,0.00,,,-99.99,wx200d/1.3,2013-01-22 00:48:00,
2013-01-21 19:53:00,30.4,32.0,29.35,NW,318,3.1,5.8,52,0.00,,,-99.99,wx200d/1.3,2013-01-22 00:53:00,
2013-01-21 19:58:00,30.2,32.0,29.35,North,351,5.4,9.2,53,0.00,,,-99.99,wx200d/1.3,2013-01-22 00:58:00,
2013-01-21 20:03:00,30.2,32.0,29.35,WNW,303,0.0,6.7,52,0.00,,,-99.99,wx200d/1.3,2013-01-22 01:03:00,
2013-01-21 20:08:00,30.0,32.0,29.35,NNW,341,0.0,6.3,52,0.00,,,-99.99,wx200d/1.3,2013-01-22 01:08:00,
2013-01-21 20:13:00,30.0,32.0,29.32,WNW,302,2.7,8.3,53,0.00,,,-99.99,wx200d/1.3,2013-01-22 01:13:00,
2013-01-21 20:18:00,30.0,32.0,29.32,NW,322,6.7,11.0,52,0.00,,,-99.99,wx200d/1.3,2013-01-22 01:18:00,
2013-01-21 20:23:00,29.8,32.0,29.32,NNW,332,5.8,9.2,52,0.00,,,-99.99,wx200d/1.3,2013-01-22 01:23:00,
2013-01-21 20:28:00,29.8,32.0,29.32,NNW,340,6.3,12.1,51,0.00,,,-99.99,wx200d/1.3,2013-01-22 01:28:00,
2013-01-21 20:33:00,29.8,32.0,29.32,North,4,6.3,11.0,51,0.00,,,-99.99,wx200d/1.3,2013-01-22 01:33:00,
2013-01-21 20:38:00,29.8,32.0,29.32,WNW,298,6.3,11.0,51,0.00,,,-99.99,wx200d/1.3,2013-01-22 01:38:00,
2013-01-21 20:43:00,29.7,32.0,29.32,NW,323,6.7,11.0,50,0.00,,,-99.99,wx200d/1.3,2013-01-22 01:43:00,
2013-01-21 20:48:00,29.7,32.0,29.32,NNW,329,5.8,8.3,50,0.00,,,-99.99,wx200d/1.3,2013-01-22 01:48:00,
2013-01-21 20:53:00,29.5,32.0,29.32,NNW,330,5.4,8.3,50,0.00,,,-99.99,wx200d/1.3,2013-01-22 01:53:00,
2013-01-21 20:58:00,29.5,32.0,29.32,NNW,339,5.4,8.3,50,0.00,,,-99.99,wx200d/1.3,2013-01-22 01:58:00,
2013-01-21 21:03:00,29.3,32.0,29.32,NNW,330,0.0,6.9,49,0.00,,,-99.99,wx200d/1.3,2013-01-22 02:03:00,
2013-01-21 21:08:00,29.1,32.0,29.32,NNW,327,0.0,6.3,49,0.00,,,-99.99,wx200d/1.3,2013-01-22 02:08:00,
2013-01-21 21:13:00,29.1,32.0,29.35,NW,321,3.6,9.2,50,0.00,,,-99.99,wx200d/1.3,2013-01-22 02:13:00,
2013-01-21 21:18:00,29.1,32.0,29.35,NNW,336,8.7,13.0,48,0.00,,,-99.99,wx200d/1.3,2013-01-22 02:18:00,
2013-01-21 21:23:00,29.1,32.0,29.35,NW,325,6.9,12.5,46,0.00,,,-99.99,wx200d/1.3,2013-01-22 02:23:00,
2013-01-21 21:28:00,28.9,32.0,29.32,NW,305,5.4,8.7,46,0.00,,,-99.99,wx200d/1.3,2013-01-22 02:28:00,
2013-01-21 21:33:00,28.8,32.0,29.32,NNW,334,6.3,11.2,45,0.00,,,-99.99,wx200d/1.3,2013-01-22 02:33:00,
2013-01-21 21:38:00,28.4,32.0,29.32,NNW,340,10.5,16.8,41,0.00,,,-99.99,wx200d/1.3,2013-01-22 02:38:00,
2013-01-21 21:43:00,28.2,32.0,29.32,NW,321,6.3,15.4,38,0.00,,,-99.99,wx200d/1.3,2013-01-22 02:43:00,
2013-01-21 21:48:00,28.0,32.0,29.32,WNW,298,7.8,12.1,36,0.00,,,-99.99,wx200d/1.3,2013-01-22 02:48:00,
2013-01-21 21:53:00,27.9,32.0,29.32,NW,307,5.8,12.5,35,0.00,,,-99.99,wx200d/1.3,2013-01-22 02:53:00,
2013-01-21 21:58:00,27.7,32.0,29.32,NW,317,8.7,14.3,34,0.00,,,-99.99,wx200d/1.3,2013-01-22 02:58:00,
2013-01-21 22:03:00,27.5,32.0,29.32,NW,322,8.7,13.4,34,0.00,,,-99.99,wx200d/1.3,2013-01-22 03:03:00,
2013-01-21 22:08:00,27.3,32.0,29.32,North,356,6.9,13.9,33,0.00,,,-99.99,wx200d/1.3,2013-01-22 03:08:00,
2013-01-21 22:13:00,27.1,32.0,29.35,NNW,331,5.4,10.5,33,0.00,,,-99.99,wx200d/1.3,2013-01-22 03:13:00,
2013-01-21 22:18:00,27.1,32.0,29.35,NW,319,6.7,10.5,33,0.00,,,-99.99,wx200d/1.3,2013-01-22 03:18:00,
2013-01-21 22:24:00,27.0,32.0,29.35,NW,325,8.3,12.1,33,0.00,,,-99.99,wx200d/1.3,2013-01-22 03:24:00,
2013-01-21 22:29:00,26.8,32.0,29.35,WNW,288,6.3,9.6,33,0.00,,,-99.99,wx200d/1.3,2013-01-22 03:29:00,
2013-01-21 22:34:00,26.8,32.0,29.35,NW,323,4.0,15.4,33,0.00,,,-99.99,wx200d/1.3,2013-01-22 03:34:00,
2013-01-21 22:39:00,26.6,32.0,29.35,NNW,335,6.9,10.5,33,0.00,,,-99.99,wx200d/1.3,2013-01-22 03:39:00,
2013-01-21 22:44:00,26.6,32.0,29.35,WNW,282,5.4,10.1,33,0.00,,,-99.99,wx200d/1.3,2013-01-22 03:44:00,
2013-01-21 22:49:00,26.4,32.0,29.35,WNW,289,8.3,11.2,33,0.00,,,-99.99,wx200d/1.3,2013-01-22 03:49:00,
2013-01-21 22:54:00,26.4,32.0,29.35,WNW,297,9.6,12.5,33,0.00,,,-99.99,wx200d/1.3,2013-01-22 03:54:00,
2013-01-21 22:59:00,26.4,32.0,29.35,NW,317,5.4,11.6,33,0.00,,,-99.99,wx200d/1.3,2013-01-22 03:59:00,
2013-01-21 23:04:00,26.2,32.0,29.35,NNW,333,4.9,11.0,33,0.00,,,-99.99,wx200d/1.3,2013-01-22 04:04:00,
2013-01-21 23:09:00,26.2,32.0,29.35,NNW,333,5.4,8.3,33,0.00,,,-99.99,wx200d/1.3,2013-01-22 04:09:00,
2013-01-21 23:14:00,26.1,32.0,29.35,NW,325,4.5,9.6,34,0.00,,,-99.99,wx200d/1.3,2013-01-22 04:14:00,
2013-01-21 23:19:00,26.1,32.0,29.35,NNW,344,7.8,13.0,34,0.00,,,-99.99,wx200d/1.3,2013-01-22 04:19:00,
2013-01-21 23:24:00,25.9,32.0,29.35,WNW,284,5.4,10.5,34,0.00,,,-99.99,wx200d/1.3,2013-01-22 04:24:00,
2013-01-21 23:29:00,25.7,32.0,29.35,NW,326,4.9,9.6,34,0.00,,,-99.99,wx200d/1.3,2013-01-22 04:29:00,
2013-01-21 23:34:00,25.5,32.0,29.35,NNW,336,3.1,6.9,35,0.00,,,-99.99,wx200d/1.3,2013-01-22 04:34:00,
2013-01-21 23:39:00,25.3,32.0,29.35,NW,321,4.0,9.2,36,0.00,,,-99.99,wx200d/1.3,2013-01-22 04:39:00,
2013-01-21 23:44:00,25.3,32.0,29.35,NW,326,7.8,10.5,37,0.00,,,-99.99,wx200d/1.3,2013-01-22 04:44:00,
2013-01-21 23:49:00,25.2,32.0,29.35,NNW,336,6.9,12.1,38,0.00,,,-99.99,wx200d/1.3,2013-01-22 04:49:00,
2013-01-21 23:54:00,25.0,32.0,29.35,NNW,335,8.7,13.0,39,0.00,,,-99.99,wx200d/1.3,2013-01-22 04:54:00,
2013-01-21 23:59:00,24.8,32.0,29.35,NW,325,8.7,14.3,39,0.00,,,-99.99,wx200d/1.3,2013-01-22 04:59:00,